Regional Weather Roundup
Issued by NWS Glasgow, MT

Home | Current Version | Previous Version | Text Only | Print | Product List | Glossary On
Versions: 1 2 3 4 5 6 7 8 9 10 11 12 13 14 15 16 17 18 19 20 21 22 23 24 25 26 27
000
ASUS45 KGGW 191215
RWRGGW
HOURLY WEATHER ROUNDUP FOR NORTHEAST MONTANA
NATIONAL WEATHER SERVICE GLASGOW MONTANA
600 AM MDT SAT APR 19 2014

NOTE: "FAIR" INDICATES FEW OR NO CLOUDS BELOW 12,000 FEET WITH NO
SIGNIFICANT WEATHER AND/OR OBSTRUCTIONS TO VISISBILITY.

NORTHEAST MONTANA


CITY           SKY/WX    TMP DP  RH WIND       PRES   REMARKS
GLASGOW        CLOUDY    38  33  82 W21       29.85R
6HR MIN TEMP:  36; 6HR MAX TEMP:  41; 6HR PCP: TRACE;

PLENTYWOOD       N/A     38  34  85 W20         N/A
WOLF POINT     MOCLDY    40  33  76 W17       29.83R
JORDAN           N/A     36  23  59 W10       29.88R
WINNETT          N/A     34  21  59 SW8         N/A
SIDNEY         CLEAR     39  32  75 W18G30    29.80S
GLENDIVE       CLEAR     34  23  64 W10       29.87R
SCOBEY           N/A     38  32  79 W16G23    29.76

FORT PECK REPORTS


CITY           SKY/WX    TMP DP  RH WIND       PRES   REMARKS
FORT PECK        N/A     39  33  79 W25         N/A
THE PINES        N/A     40  32  73 W10G20      N/A

SOUTHEAST MONTANA


CITY           SKY/WX    TMP DP  RH WIND       PRES   REMARKS
BILLINGS       PTCLDY    39  13  34 N5        29.96R
MILES CITY     CLEAR     37  23  56 W9        29.92R
BAKER          CLEAR     34  25  69 W13       29.89R
LIVINGSTON     CLEAR     37  11  34 SW17      29.95R

CENTRAL MONTANA


CITY           SKY/WX    TMP DP  RH WIND       PRES   REMARKS
HAVRE          CLEAR     33  30  88 W8        29.93R
LEWISTOWN      CLEAR     31  16  54 SW12      29.94R
GREAT FALLS    CLEAR     30  17  58 S5        29.92S
CUT BANK       CLEAR     34  23  64 W16       29.88S
HELENA         CLEAR     32  14  47 SW3       29.98S
BUTTE          CLEAR     20  14  77 SE3       30.00S
BOZEMAN        PTCLDY    24  17  74 S6        30.00S

WESTERN MONTANA


CITY           SKY/WX    TMP DP  RH WIND       PRES   REMARKS
MISSOULA       CLEAR     25  20  81 CALM      30.03S
KALISPELL      NOT AVBL

NORTH DAKOTA


CITY           SKY/WX    TMP DP  RH WIND       PRES   REMARKS
WILLISTON      MOCLDY    37  32  82 W14G20    29.75R
DICKINSON      CLEAR     38  24  57 W17       29.81R
MINOT          CLEAR     38  32  79 SW9       29.72R
BISMARCK       PTCLDY    39  33  79 SW8       29.83R

SOUTHERN SASKATCHEWAN


CITY           SKY/WX    TMP DP  RH WIND       PRES   REMARKS
REGINA         CLOUDY    34  32  93 NW20G28   29.66R
ESTEVAN        CLOUDY    36  34  93 W13       29.67R
SWIFT CURRENT  CLOUDY    30  30 100 NW24      29.78R




USA.gov is the U.S. government's official web portal to all federal, state and local government web resources and services.